Regional Weather Roundup
Issued by NWS Kansas City/Pleasant Hill, MO

Home | Current Version | Previous Version | Graphics & Text | Print | Product List | Glossary Off
Versions: 1 2 3 4 5 6 7 8 9 10 11 12 13 14 15 16 17 18 19 20 21 22 23 24 25 26 27 28 29 30 31 32 33 34 35 36 37 38 39 40 41 42 43 44 45 46 47 48 49 50

000
ASUS43 KEAX 280404
RWREAX

WEATHER ROUNDUP FOR EASTERN KANSAS AND NORTHWEST MISSOURI
NATIONAL WEATHER SERVICE KANSAS CITY/PLEASANT HILL MO
1000 PM CST THU NOV 27 2014

KSZ040-057-103>105-MOZ028-029-037-043-280500-
...KANSAS CITY METROPOLITAN AREA...

CITY           SKY/WX    TMP DP  RH WIND       PRES   REMARKS
K.C. INTL      CLEAR     28  22  78 SE10      30.29F WCI  19
K.C. DOWNTOWN  CLEAR     33  23  66 E8        30.31F WCI  26
LEES SUMMIT    CLEAR     31  22  69 SE7       30.31F WCI  24
OLATHE - IXD   CLEAR     30  22  72 SE10      30.29F WCI  21
OLATHE - OJC   CLEAR     29  23  78 SE7       30.28F WCI  22
LAWRENCE       CLEAR     27  21  78 SE8       30.28F WCI  19

$$

MOZ001>008-011>017-020>025-030>033-038>040-044>046-053-054-280500-
...NORTHERN AND CENTRAL MISSOURI...

CITY           SKY/WX    TMP DP  RH WIND       PRES   REMARKS
ST. JOSEPH     CLEAR     27  22  81 SE12      30.28F WCI  17
MOSBY          CLEAR     30  25  80 SE7       30.32F WCI  23
WARRENSBURG    CLEAR     30  23  74 E5        30.34F WCI  25
WHITEMAN AFB   CLEAR     28  23  80 SE3       30.34S
CLINTON        CLEAR     32  27  80 SE6       30.35S WCI  26
SEDALIA        PTCLDY    30  23  75 SE7       30.36S WCI  23
WARSAW         NOT AVBL
MARSHALL       MOCLDY    32  27  80 SE6       30.37S WCI  26
CHILLICOTHE      N/A     29  20  69 SE7       30.35F WCI  22
KIRKSVILLE     MOCLDY    20  14  77 SE9       30.36F WCI   9

$$

MOZ041-047>049-056>058-063>065-088>090-097-280500-
...EASTERN AND SOUTHERN MISSOURI...

CITY           SKY/WX    TMP DP  RH WIND       PRES   REMARKS
ST. LOUIS INTL MOCLDY    27  19  72 E6        30.44F WCI  20
SPIRIT OF STL  CLOUDY    28  20  71 CALM      30.43F
COLUMBIA       CLOUDY    31  24  75 SE7       30.36F WCI  24
JEFFERSON CITY CLOUDY    31  26  82 SE6       30.39F WCI  25
MEXICO         CLOUDY    28  23  80 SE5       30.39F WCI  23
ROLLA          CLOUDY    29  23  78 E8        30.35F WCI  21
LEBANON        PTCLDY    32  23  69 SE7       30.35F WCI  26
OSAGE BEACH    MOCLDY    30  21  69 SE5       30.37S WCI  25
SPRINGFIELD    CLEAR     34  22  61 S10       30.31F WCI  26
NEVADA         CLEAR     30  21  69 SE5       30.33F WCI  25
JOPLIN         CLEAR     34  20  56 SE5       30.34S WCI  30
WEST PLAINS    PTCLDY    33  20  58 SE5       30.39F WCI  29

$$

IAZ060-094-KSZ022-034>040-054-083-096-NEZ052-066-093-280500-
...KANSAS...SOUTHEAST NEBRASKA AND IOWA...

CITY           SKY/WX    TMP DP  RH WIND       PRES   REMARKS
TOPEKA         CLEAR     34  22  61 SE6       30.27F WCI  29
MANHATTAN      CLEAR     34  20  56 S7        30.20F WCI  28
EMPORIA        CLEAR     31  21  66 SE13      30.22F WCI  21
CHANUTE        CLEAR     31  24  75 SE8       30.29F WCI  23
WICHITA        PTCLDY    40  21  46 S16       30.19F WCI  31
OMAHA          PTCLDY    24  16  71 SE15      30.19F WCI  11
LINCOLN        CLEAR     27  18  69 S13       30.15F WCI  16
FALLS CITY     CLEAR     26  20  77 SE13      30.22F WCI  15
LAMONI         PTCLDY    21  14  74 SE8       30.28F WCI  11
DES MOINES     MOCLDY    15   4  61 SE8       30.31F WCI   4

$$




USA.gov is the U.S. government's official web portal to all federal, state and local government web resources and services.